Change the Weather History Date:

Thursday, July 3, 2014

  Actual Average Record
Temperature  
Mean Temperature 69 °F 79 °F  
Max Temperature 77 °F 89 °F 103 °F (1941)
Min Temperature 61 °F 69 °F 50 °F (1947)
Degree Days  
Heating Degree Days 0 0  
Month to date heating degree days 0 0  
Since 1 June heating degree days 0 4  
Since 1 July heating degree days 0 0  
Cooling Degree Days 4 14  
Month to date cooling degree days 32 42  
Year to date cooling degree days 715 534  
Since 1 June cooling degree days 437 362  
Growing Degree Days 20 (Base 50)    
Moisture  
Dew Point 59 °F    
Average Humidity 76    
Maximum Humidity 93    
Minimum Humidity 58    
Precipitation  
Precipitation 0.00 in 0.15 in 5.48 in (1983)
Month to date precipitation 0.93 0.44  
Year to date precipitation 27.81 25.72  
Snow  
Snow 0.00 in 0.00 in 0.00 in (2002)
Month to date snowfall 0.0 0.0  
Since 1 June snowfall 0.0 0.0  
Since 1 July snowfall 0.0 0.0  
Snow Depth 0.00 in    
Sea Level Pressure  
Sea Level Pressure 30.14 in    
Wind  
Wind Speed 5 mph (NNW)    
Max Wind Speed 15 mph    
Max Gust Speed 18 mph    
Visibility 10 miles    
Events      
T = Trace of Precipitation, MM = Missing Value Source: NWS Daily Summary

Daily Weather History Graph

Daily Weather History Graph

Search for Another Location

Airport or City:

Trip Planner

Search our weather history database for the weather conditions in past years. The results will help you decide how hot, cold, wet, or windy it might be!

Date:

Astronomy

Jul. 03, 2014 Rise Set
Actual Time 5:39 AM CDT 8:18 PM CDT
Civil Twilight 5:09 AM CDT 8:49 PM CDT
Nautical Twilight 4:31 AM CDT 9:27 PM CDT
Astronomical Twilight 3:48 AM CDT 10:10 PM CDT
Moon 11:30 AM CDT (7/3) 11:50 PM CDT (7/3)
Length of Visible Light 15h 39m
Length of Day
14h 38m
Waxing Crescent, 33% of the Moon is Illuminated
Jul 3
Waxing Crescent
Jul 5
First Quarter
Jul 12
Full
Jul 18
Last Quarter
Jul 26
New

Hourly Weather History & Observations

Time (CDT) Temp. Dew Point Humidity Pressure Visibility Wind Dir Wind Speed Gust Speed Precip Events Conditions
12:53 AM 66.9 °F 60.1 °F 79% 30.05 in 10.0 mi Calm Calm - N/A   Partly Cloudy
1:53 AM 66.9 °F 59.0 °F 76% 30.06 in 10.0 mi Calm Calm - N/A   Overcast
2:53 AM 66.0 °F 59.0 °F 78% 30.06 in 10.0 mi WNW 3.5 mph - N/A   Mostly Cloudy
3:53 AM 64.9 °F 59.0 °F 81% 30.07 in 10.0 mi NW 4.6 mph - N/A   Scattered Clouds
4:53 AM 64.0 °F 57.9 °F 80% 30.08 in 10.0 mi NW 3.5 mph - N/A   Clear
5:53 AM 63.0 °F 57.0 °F 81% 30.10 in 10.0 mi NNW 4.6 mph - N/A   Clear
6:53 AM 66.0 °F 57.9 °F 75% 30.12 in 10.0 mi North 5.8 mph - N/A   Clear
7:53 AM 68.0 °F 57.9 °F 70% 30.14 in 10.0 mi NNW 10.4 mph - N/A   Clear
8:53 AM 69.8 °F 57.2 °F 64% 30.15 in 10.0 mi NNW 8.1 mph - N/A   Scattered Clouds
9:22 AM 71.1 °F 57.9 °F 63% 30.15 in 10.0 mi North 8.1 mph - N/A   Mostly Cloudy
9:37 AM 68.0 °F 57.0 °F 68% 30.15 in 10.0 mi Variable 5.8 mph - N/A   Scattered Clouds
9:53 AM 71.1 °F 57.9 °F 63% 30.14 in 10.0 mi North 5.8 mph - N/A   Clear
10:16 AM 70.0 °F 57.9 °F 65% 30.16 in 10.0 mi NNW 6.9 mph - N/A   Mostly Cloudy
10:27 AM 70.0 °F 57.0 °F 63% 30.16 in 10.0 mi NNW 8.1 mph - N/A   Mostly Cloudy
10:53 AM 72.0 °F 57.9 °F 61% 30.16 in 10.0 mi North 6.9 mph - N/A   Mostly Cloudy
11:53 AM 71.1 °F 57.9 °F 63% 30.17 in 10.0 mi North 8.1 mph - N/A   Overcast
12:53 PM 75.0 °F 59.0 °F 57% 30.16 in 10.0 mi NNE 10.4 mph - N/A   Mostly Cloudy
1:53 PM 73.4 °F 59.0 °F 61% 30.18 in 10.0 mi NW 5.8 mph - N/A   Overcast
2:53 PM 75.9 °F 59.0 °F 56% 30.16 in 10.0 mi North 10.4 mph - N/A   Overcast
3:53 PM 73.9 °F 59.0 °F 59% 30.16 in 10.0 mi North 8.1 mph - N/A   Overcast
4:53 PM 73.9 °F 59.0 °F 59% 30.17 in 10.0 mi North 5.8 mph - N/A   Overcast
5:53 PM 73.9 °F 60.1 °F 62% 30.16 in 10.0 mi NNW 6.9 mph - N/A   Overcast
6:53 PM 73.0 °F 59.0 °F 61% 30.15 in 10.0 mi North 5.8 mph - N/A   Overcast
7:53 PM 71.1 °F 60.1 °F 68% 30.15 in 10.0 mi North 4.6 mph - N/A   Scattered Clouds
8:53 PM 66.9 °F 60.1 °F 79% 30.15 in 10.0 mi Calm Calm - N/A   Clear
9:53 PM 63.0 °F 60.1 °F 90% 30.17 in 10.0 mi WSW 3.5 mph - N/A   Clear
10:53 PM 62.1 °F 59.0 °F 90% 30.19 in 10.0 mi SW 3.5 mph - N/A   Clear
11:53 PM 62.1 °F 57.9 °F 86% 30.21 in 9.0 mi Calm Calm - N/A   Clear